Starlink 1171

operational
NORAD ID: 45062 Int'l Des: 2020-006 Owner: SPXS Country: US Constellation: starlink
LEOCIRCULARSTARLINK_TYPE

关于 Starlink 1171

正在加载描述...

实时位置

正在加载3D地球...

即将过境

高度历史

Altitude vs Time

uPlot chart will show altitude changes over time

两行轨道根数

1 45062U 20006U 25352.09568661 .00051552 00000-0 12428-2 0 9990
2 45062 53.0536 280.4460 0013148 76.4513 283.7955 15.40668239324347
Epoch: Dec 18, 2025 • Age: 23 hours

当前状态

高度 463.4 km
速度 7.63 km/s
星下点 -36.96°S, 26.13°E
发射日期 Jan 29, 2020
运行时间 5.8 years
类型 internet

技术详情

分类 Payload
质量 260.00 kg
干质量 248.00 kg
总质量 260.00 kg
长度 0.20 m
直径 2.80 m
跨度 9.00 m
形状 Box + pan
制造商 SPXS
平台类型 Starlink
阶段状态 In Orbit
所有者/国家 SPXS/US

大型星座

Loading constellations...